Location: Newark
(15.4608°S, 41.1635°W)
Time: 07:20:44
(UTC+00:00)

Transit 4A - Pass Details

Date: 13 March 2021
Orbit: 869 x 975 km, 66.8° (Epoch: 22 April)

Event Time Altitude Azimuth Distance (km) Brightness Sun altitude
Rises 08:46:51 0° 201° (SSW) 3,642 10.8 -1.0°
Reaches altitude 10° 08:49:23 10° 201° (SSW) 2,703 10.2 -0.4°
Maximum altitude 08:55:45 90° 172° (S) 977 8.2 1.1°
Drops below altitude 10° 09:02:07 10° 20° (NNE) 2,710 10.6 2.7°
Sets 09:04:40 0° 20° (NNE) 3,651 11.3 3.3°
